| time (UTC) | temp C | wind direction | speed KPH | gust KPH | rain 1hr cm | rain 24hr cm | rain mn cm | humidity % | barometer mb |
| 20260507073431 | 6 | 97 | 1.6 | 4.8 | 0.00 | 1.45 | 0.03 | 99 | 1003.5 |
| 20260507072701 | 6 | 73 | 1.6 | 4.8 | 0.00 | 1.45 | 0.03 | 99 | 1003.6 |
| 20260507072200 | 6 | 68 | 1.6 | 4.8 | 0.03 | 1.45 | 0.03 | 100 | 1003.5 |
| 20260507071930 | 6 | 83 | 0.0 | 4.8 | 0.03 | 1.45 | 0.03 | 100 | 1003.6 |
| 20260507071200 | 5 | 14 | 0.0 | 3.2 | 0.03 | 1.45 | 0.03 | 100 | 1003.7 |
| 20260507070659 | 5 | 66 | 0.0 | 1.6 | 0.03 | 1.45 | 0.03 | 100 | 1003.6 |
| 20260507070159 | 5 | 64 | 0.0 | 4.8 | 0.03 | 1.45 | 0.03 | 100 | 1003.7 |
| 20260507065657 | 5 | 64 | 0.0 | 4.8 | 0.03 | 1.45 | 0.03 | 100 | 1003.4 |
| 20260507065156 | 5 | 182 | 0.0 | 3.2 | 0.03 | 1.45 | 0.03 | 100 | 1003.4 |
| 20260507064657 | 5 | 163 | 0.0 | 1.6 | 0.03 | 1.45 | 0.03 | 100 | 1003.1 |
| 20260507064154 | 5 | 163 | 0.0 | 1.6 | 0.03 | 1.45 | 0.03 | 100 | 1003.3 |
| 20260507063655 | 5 | 204 | 0.0 | 1.6 | 0.03 | 1.45 | 0.03 | 100 | 1003.4 |
| 20260507063152 | 5 | 215 | 0.0 | 4.8 | 0.03 | 1.45 | 0.03 | 100 | 1003.3 |
| 20260507062652 | 6 | 95 | 0.0 | 4.8 | 0.03 | 1.45 | 0.03 | 100 | 1003.1 |
| 20260507062151 | 6 | 113 | 0.0 | 4.8 | 0.00 | 1.42 | 0.00 | 100 | 1003.1 |
| 20260507061922 | 5 | 111 | 1.6 | 4.8 | 0.00 | 1.42 | 0.00 | 100 | 1003.2 |
| 20260507061150 | 5 | 99 | 0.0 | 3.2 | 0.00 | 1.42 | 0.00 | 100 | 1003.5 |
| 20260507060651 | 5 | 216 | 0.0 | 0.0 | 0.00 | 1.42 | 0.00 | 100 | 1003.6 |
| 20260507060148 | 5 | 219 | 0.0 | 0.0 | 0.00 | 1.42 | 0.00 | 100 | 1003.9 |
| 20260507055648 | 5 | 222 | 0.0 | 0.0 | 0.00 | 1.42 | 0.00 | 100 | 1003.8 |
| 20260507055148 | 5 | 213 | 0.0 | 0.0 | 0.00 | 1.42 | 0.00 | 100 | 1003.7 |
| 20260507054919 | 5 | 178 | 0.0 | 0.0 | 0.00 | 1.42 | 0.00 | 100 | 1004.0 |
| 20260507054148 | 5 | 178 | 0.0 | 0.0 | 0.00 | 1.42 | 0.00 | 100 | 1004.0 |
| 20260507053648 | 5 | 208 | 0.0 | 0.0 | 0.00 | 1.42 | 0.00 | 100 | 1004.2 |
| 20260507053149 | 5 | 203 | 0.0 | 0.0 | 0.00 | 1.42 | 0.00 | 100 | 1004.0 |
| 20260507052648 | 5 | 203 | 0.0 | 0.0 | 0.00 | 1.42 | 0.00 | 100 | 1004.1 |
| 20260507052420 | 5 | 203 | 0.0 | 0.0 | 0.00 | 1.42 | 0.00 | 100 | 1004.5 |
| 20260507051920 | 5 | 203 | 0.0 | 0.0 | 0.00 | 1.42 | 0.00 | 99 | 1004.5 |
| 20260507051148 | 5 | 203 | 0.0 | 0.0 | 0.00 | 1.42 | 0.00 | 99 | 1004.4 |
| 20260507050648 | 5 | 203 | 0.0 | 0.0 | 0.00 | 1.42 | 0.00 | 99 | 1004.5 |
| 20260507050148 | 6 | 203 | 0.0 | 0.0 | 0.00 | 1.42 | 0.00 | 99 | 1004.5 |
| 20260507045920 | 6 | 203 | 0.0 | 0.0 | 0.00 | 1.45 | 0.00 | 99 | 1004.2 |
| 20260507045148 | 6 | 203 | 0.0 | 0.0 | 0.00 | 1.45 | 0.00 | 100 | 1004.0 |
| 20260507044649 | 6 | 203 | 0.0 | 0.0 | 0.00 | 1.45 | 0.00 | 100 | 1004.2 |
| 20260507044145 | 6 | 263 | 0.0 | 0.0 | 0.00 | 1.45 | 0.00 | 99 | 1004.3 |
| 20260507043645 | 6 | 281 | 0.0 | 0.0 | 0.00 | 1.45 | 0.00 | 99 | 1004.0 |
| 20260507043144 | 6 | 281 | 0.0 | 0.0 | 0.00 | 1.45 | 0.00 | 99 | 1004.1 |
| 20260507042641 | 6 | 284 | 0.0 | 0.0 | 0.00 | 1.45 | 0.00 | 99 | 1004.2 |
| 20260507042140 | 6 | 286 | 0.0 | 0.0 | 0.00 | 1.45 | 0.00 | 99 | 1004.1 |
| 20260507041640 | 6 | 286 | 0.0 | 0.0 | 0.00 | 1.45 | 0.00 | 99 | 1003.8 |
| 20260507041138 | 6 | 286 | 0.0 | 0.0 | 0.00 | 1.45 | 0.00 | 99 | 1003.8 |
| 20260507040637 | 6 | 286 | 0.0 | 0.0 | 0.00 | 1.45 | 0.00 | 99 | 1004.0 |
| 20260507040137 | 6 | 286 | 0.0 | 0.0 | 0.00 | 1.45 | 0.00 | 99 | 1004.2 |
| 20260507035636 | 6 | 286 | 0.0 | 0.0 | 0.00 | 1.45 | 1.45 | 99 | 1004.3 |
| 20260507035135 | 6 | 286 | 0.0 | 0.0 | 0.00 | 1.45 | 1.45 | 99 | 1004.4 |
| 20260507034635 | 6 | 286 | 0.0 | 0.0 | 0.00 | 1.45 | 1.45 | 99 | 1004.2 |
| 20260507034135 | 6 | 309 | 0.0 | 0.0 | 0.00 | 1.45 | 1.45 | 99 | 1004.1 |
| 20260507033632 | 7 | 309 | 0.0 | 0.0 | 0.00 | 1.45 | 1.45 | 99 | 1004.1 |
| 20260507033133 | 7 | 309 | 0.0 | 0.0 | 0.00 | 1.45 | 1.45 | 99 | 1004.4 |
| 20260507032630 | 7 | 309 | 0.0 | 0.0 | 0.00 | 1.45 | 1.45 | 99 | 1004.1 |
| 20260507032131 | 7 | 309 | 0.0 | 0.0 | 0.00 | 1.45 | 1.45 | 99 | 1004.2 |
| 20260507031901 | 7 | 309 | 0.0 | 0.0 | 0.00 | 1.45 | 1.45 | 99 | 1004.1 |
| 20260507031131 | 7 | 65 | 0.0 | 0.0 | 0.00 | 1.45 | 1.45 | 98 | 1004.4 |
| 20260507030635 | 7 | 47 | 1.6 | 9.7 | 0.00 | 1.45 | 1.45 | 98 | 1004.3 |
| 20260507030630 | 7 | 47 | 0.0 | 1.6 | 0.00 | 1.45 | 1.45 | 98 | 1004.2 |
| 20260507025631 | 7 | 76 | 1.6 | 9.7 | 0.00 | 1.45 | 1.45 | 98 | 1004.2 |
| 20260507025130 | 7 | 35 | 0.0 | 1.6 | 0.03 | 1.45 | 1.45 | 98 | 1004.3 |
| 20260507024631 | 7 | 52 | 0.0 | 1.6 | 0.03 | 1.45 | 1.45 | 98 | 1004.1 |
| 20260507024130 | 7 | 52 | 0.0 | 1.6 | 0.03 | 1.45 | 1.45 | 98 | 1004.1 |
| 20260507023629 | 7 | 54 | 0.0 | 1.6 | 0.03 | 1.45 | 1.45 | 98 | 1004.1 |
| 20260507023128 | 7 | 42 | 0.0 | 1.6 | 0.03 | 1.45 | 1.45 | 98 | 1004.1 |
| 20260507022628 | 7 | 45 | 0.0 | 3.2 | 0.03 | 1.45 | 1.45 | 98 | 1004.1 |
| 20260507022128 | 7 | 45 | 1.6 | 4.8 | 0.03 | 1.45 | 1.45 | 97 | 1004.1 |
| 20260507021629 | 7 | 29 | 1.6 | 4.8 | 0.03 | 1.45 | 1.45 | 97 | 1004.0 |
| 20260507021128 | 8 | 40 | 1.6 | 3.2 | 0.03 | 1.45 | 1.45 | 97 | 1004.1 |
| 20260507020628 | 8 | 31 | 0.0 | 3.2 | 0.03 | 1.45 | 1.45 | 97 | 1004.1 |
| 20260507020405 | 8 | 74 | 0.0 | 4.8 | 0.03 | 1.45 | 1.45 | 97 | 1004.1 |
| 20260507020128 | 8 | 37 | 1.6 | 4.8 | 0.03 | 1.45 | 1.45 | 97 | 1004.1 |
| 20260507015126 | 8 | 327 | 0.0 | 1.6 | 0.00 | 1.42 | 1.42 | 97 | 1004.1 |
| 20260507014858 | 8 | 307 | 0.0 | 1.6 | 0.00 | 1.42 | 1.42 | 96 | 1004.0 |
| 20260507014355 | 8 | 20 | 0.0 | 6.4 | 0.00 | 1.42 | 1.42 | 96 | 1004.1 |
| 20260507013629 | 8 | 343 | 1.6 | 6.4 | 0.00 | 1.42 | 1.42 | 95 | 1003.9 |
| 20260507013624 | 8 | 304 | 1.6 | 6.4 | 0.00 | 1.42 | 1.42 | 95 | 1004.0 |
| 20260507012621 | 9 | 20 | 3.2 | 8.0 | 0.00 | 1.42 | 1.42 | 95 | 1003.9 |
| 20260507012118 | 9 | 0 | 1.6 | 8.0 | 0.00 | 1.42 | 1.42 | 95 | 1003.8 |
| 20260507011618 | 9 | 315 | 0.0 | 11.3 | 0.00 | 1.42 | 1.42 | 97 | 1003.7 |
| 20260507011348 | 9 | 45 | 0.0 | 11.3 | 0.00 | 1.42 | 1.42 | 97 | 1003.5 |
| 20260507010617 | 9 | 60 | 0.0 | 3.2 | 0.00 | 1.42 | 1.42 | 97 | 1003.4 |
| 20260507010116 | 10 | 149 | 1.6 | 4.8 | 0.00 | 1.42 | 1.42 | 97 | 1003.3 |
| 20260507005848 | 10 | 35 | 1.6 | 6.4 | 0.00 | 1.42 | 1.42 | 97 | 1003.1 |
| 20260507005116 | 10 | 135 | 1.6 | 6.4 | 0.00 | 1.42 | 1.42 | 97 | 1003.2 |
| 20260507004848 | 10 | 338 | 3.2 | 8.0 | 0.00 | 1.42 | 1.42 | 96 | 1003.0 |
| 20260507004116 | 10 | 352 | 3.2 | 9.7 | 0.00 | 1.42 | 1.42 | 96 | 1003.0 |
| 20260507003616 | 10 | 70 | 3.2 | 11.3 | 0.00 | 1.42 | 1.42 | 96 | 1002.8 |
| 20260507003116 | 10 | 104 | 3.2 | 11.3 | 0.00 | 1.45 | 1.42 | 96 | 1002.8 |
| 20260507002618 | 11 | 341 | 1.6 | 9.7 | 0.00 | 1.45 | 1.42 | 97 | 1002.7 |
| 20260507002117 | 11 | 312 | 1.6 | 4.8 | 0.00 | 1.45 | 1.42 | 98 | 1002.8 |
| 20260507001614 | 11 | 28 | 1.6 | 8.0 | 0.00 | 1.45 | 1.42 | 98 | 1002.5 |
| 20260507001344 | 11 | 70 | 1.6 | 8.0 | 0.00 | 1.45 | 1.42 | 98 | 1002.3 |
| 20260507000614 | 11 | 172 | 0.0 | 3.2 | 0.00 | 1.45 | 1.42 | 99 | 1002.1 |
| 20260507000114 | 11 | 123 | 0.0 | 0.0 | 0.00 | 1.45 | 1.42 | 99 | 1001.9 |
| 20260506235614 | 11 | 109 | 0.0 | 1.6 | 0.03 | 1.45 | 1.42 | 98 | 1001.7 |
| 20260506235115 | 12 | 115 | 1.6 | 4.8 | 0.03 | 1.45 | 1.42 | 98 | 1001.7 |
| 20260506234614 | 12 | 154 | 1.6 | 4.8 | 0.03 | 1.45 | 1.42 | 98 | 1001.6 |
| 20260506234116 | 12 | 127 | 1.6 | 12.9 | 0.05 | 1.45 | 1.42 | 98 | 1001.6 |
| 20260506233845 | 12 | 104 | 3.2 | 12.9 | 0.10 | 1.45 | 1.42 | 97 | 1001.6 |
| 20260506233115 | 13 | 50 | 1.6 | 6.4 | 0.18 | 1.45 | 1.42 | 98 | 1001.4 |
| 20260506232614 | 13 | 68 | 1.6 | 9.7 | 0.20 | 1.45 | 1.42 | 98 | 1001.3 |
| 20260506232113 | 13 | 68 | 3.2 | 9.7 | 0.20 | 1.45 | 1.42 | 99 | 1001.2 |
| 20260506231612 | 13 | 142 | 4.8 | 16.1 | 0.20 | 1.45 | 1.42 | 99 | 1001.1 |
| 20260506231342 | 14 | 137 | 3.2 | 16.1 | 0.20 | 1.45 | 1.42 | 100 | 1000.9 |
| 20260506230843 | 14 | 255 | 1.6 | 3.2 | 0.20 | 1.45 | 1.42 | 100 | 1000.8 |
| 20260506230113 | 14 | 126 | 0.0 | 3.2 | 0.20 | 1.45 | 1.42 | 100 | 1000.7 |
| 20260506225612 | 14 | 277 | 0.0 | 3.2 | 0.18 | 1.42 | 1.40 | 100 | 1000.5 |
| 20260506225343 | 14 | 209 | 1.6 | 4.8 | 0.18 | 1.42 | 1.40 | 100 | 1000.4 |
| 20260506224612 | 14 | 192 | 1.6 | 6.4 | 0.15 | 1.40 | 1.40 | 100 | 1000.3 |
| 20260506224110 | 14 | 225 | 0.0 | 6.4 | 0.15 | 1.40 | 1.37 | 100 | 1000.3 |
| 20260506223610 | 14 | 263 | 0.0 | 3.2 | 0.10 | 1.35 | 1.35 | 100 | 1000.4 |
| 20260506223110 | 15 | 231 | 0.0 | 3.2 | 0.03 | 1.27 | 1.27 | 100 | 1000.4 |
| 20260506222610 | 15 | 213 | 0.0 | 3.2 | 0.00 | 1.24 | 1.22 | 100 | 1000.3 |
| 20260506222110 | 15 | 160 | 0.0 | 3.2 | 0.00 | 1.24 | 1.22 | 100 | 1000.2 |
| 20260506221610 | 15 | 146 | 0.0 | 3.2 | 0.00 | 1.24 | 1.22 | 99 | 1000.2 |
| 20260506221110 | 15 | 169 | 0.0 | 8.0 | 0.00 | 1.27 | 1.22 | 99 | 1000.3 |
| 20260506220611 | 15 | 218 | 0.0 | 8.0 | 0.00 | 1.27 | 1.22 | 99 | 1000.3 |
| 20260506220109 | 15 | 108 | 0.0 | 4.8 | 0.00 | 1.27 | 1.22 | 99 | 1000.4 |
| 20260506215608 | 15 | 202 | 0.0 | 6.4 | 0.00 | 1.27 | 1.22 | 100 | 1000.3 |
| 20260506215337 | 15 | 167 | 0.0 | 6.4 | 0.00 | 1.27 | 1.22 | 99 | 1000.3 |
| 20260506214606 | 15 | 187 | 0.0 | 4.8 | 0.03 | 1.27 | 1.22 | 99 | 1000.3 |
| 20260506214337 | 15 | 269 | 0.0 | 4.8 | 0.03 | 1.27 | 1.22 | 99 | 1000.3 |
| 20260506213606 | 15 | 266 | 1.6 | 8.0 | 0.03 | 1.27 | 1.22 | 99 | 1000.3 |
| 20260506213106 | 15 | 213 | 1.6 | 8.0 | 0.03 | 1.27 | 1.22 | 99 | 1000.3 |
| 20260506212606 | 15 | 132 | 1.6 | 11.3 | 0.03 | 1.27 | 1.22 | 99 | 1000.3 |
| 20260506212106 | 15 | 146 | 1.6 | 11.3 | 0.03 | 1.27 | 1.22 | 99 | 1000.1 |
| 20260506211605 | 15 | 240 | 1.6 | 9.7 | 0.03 | 1.27 | 1.22 | 99 | 1000.3 |
| 20260506211104 | 15 | 229 | 1.6 | 12.9 | 0.03 | 1.27 | 1.22 | 100 | 1000.3 |
| 20260506210604 | 15 | 222 | 1.6 | 12.9 | 0.05 | 1.27 | 1.22 | 99 | 1000.2 |
| 20260506210104 | 15 | 270 | 1.6 | 9.7 | 0.05 | 1.27 | 1.22 | 100 | 1000.3 |
| 20260506205604 | 15 | 219 | 1.6 | 11.3 | 0.05 | 1.27 | 1.22 | 100 | 1000.3 |
| 20260506205104 | 15 | 105 | 3.2 | 14.5 | 0.05 | 1.27 | 1.22 | 100 | 1000.3 |
| 20260506204604 | 15 | 108 | 1.6 | 14.5 | 0.03 | 1.24 | 1.19 | 100 | 1000.3 |
| 20260506204104 | 15 | 41 | 1.6 | 11.3 | 0.03 | 1.24 | 1.19 | 100 | 1000.3 |
| 20260506203601 | 15 | 199 | 1.6 | 8.0 | 0.03 | 1.24 | 1.19 | 100 | 1000.4 |
| 20260506203102 | 15 | 122 | 1.6 | 8.0 | 0.03 | 1.24 | 1.19 | 100 | 1000.4 |
| 20260506202602 | 15 | 205 | 1.6 | 8.0 | 0.03 | 1.24 | 1.19 | 100 | 1000.5 |
| 20260506202100 | 15 | 337 | 1.6 | 6.4 | 0.03 | 1.24 | 1.19 | 100 | 1000.4 |
| 20260506201600 | 15 | 172 | 1.6 | 8.0 | 0.03 | 1.24 | 1.19 | 100 | 1000.5 |
| 20260506201058 | 15 | 217 | 1.6 | 8.0 | 0.03 | 1.24 | 1.19 | 100 | 1000.5 |
| 20260506200557 | 15 | 170 | 1.6 | 6.4 | 0.03 | 1.22 | 1.17 | 100 | 1000.7 |
| 20260506200058 | 15 | 213 | 1.6 | 6.4 | 0.03 | 1.22 | 1.17 | 100 | 1000.7 |
| 20260506195830 | 15 | 107 | 1.6 | 4.8 | 0.03 | 1.22 | 1.17 | 100 | 1000.7 |
| 20260506195103 | 15 | 201 | 1.6 | 6.4 | 0.05 | 1.22 | 1.17 | 100 | 1000.8 |
| 20260506195057 | 15 | 195 | 1.6 | 4.8 | 0.05 | 1.22 | 1.17 | 100 | 1000.8 |
| 20260506194058 | 15 | 142 | 1.6 | 8.0 | 0.08 | 1.22 | 1.17 | 99 | 1000.8 |
| 20260506193828 | 15 | 244 | 1.6 | 8.0 | 0.10 | 1.22 | 1.17 | 99 | 1000.9 |
| 20260506193058 | 15 | 200 | 1.6 | 8.0 | 0.13 | 1.22 | 1.17 | 99 | 1000.9 |
| 20260506192557 | 15 | 116 | 1.6 | 6.4 | 0.13 | 1.22 | 1.17 | 99 | 1001.0 |
| 20260506192328 | 15 | 159 | 0.0 | 6.4 | 0.18 | 1.22 | 1.17 | 99 | 1001.0 |
| 20260506191557 | 15 | 187 | 1.6 | 9.7 | 0.23 | 1.22 | 1.17 | 99 | 1001.1 |
| 20260506191326 | 15 | 182 | 3.2 | 11.3 | 0.28 | 1.22 | 1.17 | 99 | 1001.0 |
| 20260506190825 | 15 | 124 | 1.6 | 11.3 | 0.30 | 1.19 | 1.14 | 99 | 1001.0 |
| 20260506190325 | 14 | 123 | 1.6 | 11.3 | 0.36 | 1.19 | 1.14 | 99 | 1001.2 |
| 20260506185554 | 14 | 171 | 1.6 | 11.3 | 0.38 | 1.19 | 1.14 | 100 | 1001.2 |
| 20260506185054 | 14 | 222 | 1.6 | 8.0 | 0.41 | 1.17 | 1.12 | 99 | 1001.3 |
| 20260506184552 | 14 | 148 | 0.0 | 8.0 | 0.43 | 1.17 | 1.12 | 100 | 1001.3 |
| 20260506184051 | 14 | 116 | 0.0 | 4.8 | 0.43 | 1.14 | 1.09 | 99 | 1001.3 |
| 20260506183550 | 14 | 159 | 0.0 | 4.8 | 0.43 | 1.12 | 1.07 | 99 | 1001.4 |
| 20260506183051 | 14 | 348 | 0.0 | 4.8 | 0.43 | 1.09 | 1.04 | 99 | 1001.4 |
| 20260506182550 | 14 | 216 | 0.0 | 3.2 | 0.46 | 1.09 | 1.04 | 99 | 1001.5 |
| 20260506182047 | 14 | 147 | 0.0 | 6.4 | 0.43 | 1.04 | 0.99 | 99 | 1001.6 |
| 20260506181548 | 14 | 207 | 1.6 | 6.4 | 0.43 | 0.99 | 0.94 | 99 | 1001.9 |
| 20260506181319 | 14 | 108 | 1.6 | 8.0 | 0.41 | 0.94 | 0.89 | 99 | 1001.9 |
| 20260506180545 | 14 | 102 | 0.0 | 8.0 | 0.38 | 0.89 | 0.84 | 99 | 1002.0 |
| 20260506180046 | 14 | 220 | 1.6 | 4.8 | 0.38 | 0.84 | 0.79 | 99 | 1002.1 |
| 20260506175546 | 14 | 217 | 1.6 | 6.4 | 0.41 | 0.81 | 0.76 | 99 | 1002.1 |
| 20260506175045 | 14 | 170 | 0.0 | 8.0 | 0.38 | 0.76 | 0.71 | 99 | 1002.1 |
| 20260506174546 | 14 | 246 | 0.0 | 8.0 | 0.38 | 0.74 | 0.69 | 99 | 1002.2 |
| 20260506174043 | 14 | 196 | 0.0 | 6.4 | 0.38 | 0.71 | 0.66 | 99 | 1002.5 |
| 20260506173544 | 14 | 112 | 1.6 | 6.4 | 0.38 | 0.69 | 0.64 | 99 | 1002.7 |
| 20260506173043 | 14 | 224 | 1.6 | 4.8 | 0.38 | 0.66 | 0.61 | 99 | 1002.7 |
| 20260506172544 | 14 | 243 | 1.6 | 6.4 | 0.38 | 0.64 | 0.58 | 99 | 1002.9 |
| 20260506172043 | 14 | 237 | 1.6 | 6.4 | 0.38 | 0.61 | 0.56 | 99 | 1002.9 |
| 20260506171814 | 14 | 247 | 1.6 | 6.4 | 0.36 | 0.56 | 0.53 | 99 | 1003.1 |
| 20260506171043 | 14 | 187 | 1.6 | 9.7 | 0.33 | 0.53 | 0.48 | 99 | 1003.0 |
| 20260506170544 | 14 | 267 | 1.6 | 9.7 | 0.30 | 0.51 | 0.46 | 99 | 1003.1 |
| 20260506170314 | 14 | 217 | 1.6 | 19.3 | 0.28 | 0.46 | 0.41 | 98 | 1003.0 |
| 20260506165543 | 14 | 232 | 3.2 | 19.3 | 0.23 | 0.41 | 0.38 | 98 | 1003.1 |
| 20260506165043 | 14 | 145 | 3.2 | 11.3 | 0.23 | 0.38 | 0.33 | 98 | 1003.0 |
| 20260506164815 | 14 | 219 | 1.6 | 11.3 | 0.23 | 0.36 | 0.30 | 98 | 1003.0 |
| 20260506164652 | 14 | 205 | 1.6 | 9.7 | 0.20 | 0.33 | 0.28 | 98 | 1003.0 |
| 20260506163543 | 14 | 183 | 1.6 | 4.8 | 0.18 | 0.30 | 0.25 | 98 | 1003.0 |
| 20260506163043 | 15 | 271 | 1.6 | 4.8 | 0.15 | 0.28 | 0.23 | 98 | 1003.0 |
| 20260506162543 | 15 | 221 | 1.6 | 4.8 | 0.13 | 0.25 | 0.20 | 98 | 1003.0 |
| 20260506162044 | 15 | 191 | 0.0 | 4.8 | 0.13 | 0.23 | 0.18 | 97 | 1003.1 |
| 20260506161544 | 15 | 132 | 0.0 | 6.4 | 0.10 | 0.20 | 0.18 | 98 | 1003.2 |
| 20260506161043 | 15 | 201 | 1.6 | 6.4 | 0.10 | 0.20 | 0.15 | 97 | 1003.2 |
| 20260506160543 | 15 | 233 | 1.6 | 4.8 | 0.10 | 0.20 | 0.15 | 97 | 1003.2 |
| 20260506160044 | 15 | 173 | 1.6 | 4.8 | 0.10 | 0.18 | 0.13 | 97 | 1003.2 |
| 20260506155543 | 15 | 108 | 0.0 | 3.2 | 0.10 | 0.18 | 0.13 | 97 | 1003.3 |
| 20260506155044 | 15 | 229 | 0.0 | 3.2 | 0.08 | 0.15 | 0.10 | 97 | 1003.4 |
| 20260506154543 | 15 | 288 | 0.0 | 0.0 | 0.05 | 0.13 | 0.10 | 96 | 1003.3 |
| 20260506154044 | 15 | 173 | 0.0 | 0.0 | 0.05 | 0.13 | 0.08 | 96 | 1003.4 |
| 20260506153541 | 15 | 225 | 0.0 | 1.6 | 0.05 | 0.13 | 0.08 | 95 | 1003.4 |
| 20260506153313 | 15 | 176 | 0.0 | 3.2 | 0.05 | 0.13 | 0.08 | 95 | 1003.6 |
| 20260506152541 | 15 | 279 | 0.0 | 4.8 | 0.05 | 0.13 | 0.08 | 94 | 1003.8 |
| 20260506152041 | 15 | 198 | 0.0 | 4.8 | 0.03 | 0.10 | 0.05 | 94 | 1003.8 |
| 20260506151539 | 15 | 246 | 1.6 | 6.4 | 0.03 | 0.10 | 0.05 | 94 | 1003.8 |
| 20260506151311 | 15 | 248 | 1.6 | 6.4 | 0.03 | 0.10 | 0.05 | 93 | 1003.9 |
| 20260506150808 | 15 | 217 | 1.6 | 6.4 | 0.03 | 0.10 | 0.05 | 92 | 1003.9 |
| 20260506150033 | 15 | 215 | 3.2 | 8.0 | 0.00 | 0.08 | 0.03 | 91 | 1004.1 |
| 20260506145534 | 15 | 225 | 3.2 | 8.0 | 0.00 | 0.08 | 0.03 | 90 | 1004.2 |
| 20260506145033 | 15 | 217 | 3.2 | 11.3 | 0.00 | 0.08 | 0.03 | 89 | 1004.1 |
| 20260506144803 | 15 | 217 | 3.2 | 11.3 | 0.00 | 0.08 | 0.03 | 89 | 1004.2 |
| 20260506144029 | 15 | 317 | 3.2 | 8.0 | 0.00 | 0.08 | 0.03 | 88 | 1004.2 |
| 20260506143529 | 15 | 279 | 1.6 | 8.0 | 0.00 | 0.08 | 0.03 | 88 | 1004.1 |
| 20260506143300 | 15 | 217 | 1.6 | 4.8 | 0.00 | 0.08 | 0.03 | 88 | 1004.0 |
| 20260506142529 | 15 | 334 | 1.6 | 6.4 | 0.00 | 0.08 | 0.03 | 88 | 1004.0 |
| 20260506142030 | 15 | 297 | 0.0 | 6.4 | 0.00 | 0.08 | 0.03 | 87 | 1003.9 |
| 20260506141529 | 15 | 212 | 0.0 | 1.6 | 0.00 | 0.08 | 0.03 | 88 | 1003.8 |
| 20260506141029 | 15 | 172 | 0.0 | 1.6 | 0.00 | 0.08 | 0.03 | 87 | 1003.8 |
| 20260506140528 | 15 | 175 | 0.0 | 3.2 | 0.00 | 0.08 | 0.03 | 88 | 1003.8 |
| 20260506140028 | 15 | 209 | 0.0 | 3.2 | 0.00 | 0.08 | 0.03 | 88 | 1003.9 |
| 20260506135527 | 15 | 272 | 1.6 | 8.0 | 0.00 | 0.08 | 0.03 | 88 | 1003.8 |
| 20260506135306 | 15 | 151 | 1.6 | 6.4 | 0.00 | 0.08 | 0.03 | 88 | 1003.8 |
| 20260506135027 | 15 | 266 | 1.6 | 8.0 | 0.00 | 0.08 | 0.03 | 88 | 1003.7 |
| 20260506134027 | 15 | 234 | 1.6 | 6.4 | 0.00 | 0.08 | 0.03 | 89 | 1003.8 |
| 20260506133759 | 15 | 285 | 1.6 | 4.8 | 0.00 | 0.08 | 0.03 | 90 | 1003.8 |
| 20260506133025 | 14 | 225 | 1.6 | 4.8 | 0.00 | 0.08 | 0.03 | 91 | 1003.8 |
| 20260506132525 | 14 | 217 | 1.6 | 4.8 | 0.00 | 0.08 | 0.03 | 91 | 1003.9 |
| 20260506132025 | 14 | 222 | 1.6 | 4.8 | 0.00 | 0.08 | 0.03 | 91 | 1004.0 |
| 20260506131524 | 14 | 326 | 1.6 | 6.4 | 0.00 | 0.08 | 0.03 | 91 | 1003.9 |
| 20260506131025 | 13 | 195 | 1.6 | 6.4 | 0.00 | 0.08 | 0.03 | 92 | 1004.1 |
| 20260506130525 | 13 | 243 | 1.6 | 6.4 | 0.00 | 0.08 | 0.03 | 92 | 1004.2 |
| 20260506130025 | 13 | 197 | 1.6 | 6.4 | 0.00 | 0.08 | 0.03 | 92 | 1004.3 |
| 20260506125528 | 13 | 174 | 1.6 | 6.4 | 0.00 | 0.08 | 0.03 | 93 | 1004.5 |
| 20260506125523 | 13 | 239 | 1.6 | 6.4 | 0.00 | 0.08 | 0.03 | 93 | 1004.4 |
| 20260506124523 | 13 | 254 | 1.6 | 6.4 | 0.00 | 0.08 | 0.03 | 93 | 1004.6 |
| 20260506124254 | 13 | 258 | 1.6 | 11.3 | 0.00 | 0.08 | 0.03 | 93 | 1004.5 |
| 20260506123523 | 13 | 219 | 1.6 | 11.3 | 0.00 | 0.08 | 0.03 | 93 | 1004.5 |
| 20260506123022 | 13 | 222 | 1.6 | 9.7 | 0.00 | 0.08 | 0.03 | 94 | 1004.6 |
| 20260506122521 | 13 | 255 | 1.6 | 9.7 | 0.00 | 0.08 | 0.03 | 95 | 1004.6 |
| 20260506122022 | 13 | 253 | 1.6 | 9.7 | 0.00 | 0.08 | 0.03 | 95 | 1004.6 |
| 20260506121521 | 13 | 210 | 1.6 | 9.7 | 0.00 | 0.08 | 0.03 | 95 | 1004.6 |
| 20260506121021 | 12 | 273 | 1.6 | 11.3 | 0.00 | 0.08 | 0.03 | 95 | 1004.4 |
| 20260506120521 | 12 | 226 | 1.6 | 11.3 | 0.00 | 0.08 | 0.03 | 95 | 1003.9 |
| 20260506120021 | 12 | 238 | 1.6 | 6.4 | 0.00 | 0.08 | 0.03 | 95 | 1003.8 |
| 20260506115522 | 12 | 221 | 1.6 | 9.7 | 0.00 | 0.08 | 0.03 | 96 | 1004.2 |
| 20260506115021 | 12 | 203 | 1.6 | 9.7 | 0.00 | 0.08 | 0.03 | 96 | 1004.4 |
| 20260506114521 | 12 | 209 | 3.2 | 8.0 | 0.00 | 0.08 | 0.03 | 96 | 1004.3 |
| 20260506114021 | 12 | 208 | 3.2 | 8.0 | 0.00 | 0.08 | 0.03 | 96 | 1004.4 |
| 20260506113521 | 12 | 232 | 1.6 | 6.4 | 0.00 | 0.08 | 0.03 | 97 | 1004.5 |
| 20260506113251 | 12 | 239 | 1.6 | 8.0 | 0.00 | 0.08 | 0.03 | 97 | 1004.5 |
| 20260506112521 | 12 | 217 | 3.2 | 14.5 | 0.00 | 0.08 | 0.03 | 97 | 1004.5 |
| 20260506112021 | 12 | 223 | 3.2 | 14.5 | 0.00 | 0.08 | 0.03 | 97 | 1004.6 |
| 20260506111521 | 12 | 219 | 1.6 | 11.3 | 0.00 | 0.08 | 0.03 | 98 | 1004.5 |
| 20260506111022 | 12 | 204 | 1.6 | 11.3 | 0.00 | 0.08 | 0.03 | 99 | 1004.3 |
| 20260506110521 | 12 | 222 | 3.2 | 8.0 | 0.00 | 0.08 | 0.03 | 99 | 1004.0 |
| 20260506110021 | 11 | 239 | 1.6 | 16.1 | 0.00 | 0.08 | 0.03 | 100 | 1004.2 |
| 20260506105521 | 11 | 208 | 1.6 | 16.1 | 0.00 | 0.08 | 0.03 | 100 | 1004.2 |
| 20260506105021 | 11 | 291 | 1.6 | 6.4 | 0.00 | 0.08 | 0.03 | 100 | 1004.3 |
| 20260506104522 | 11 | 142 | 1.6 | 6.4 | 0.00 | 0.08 | 0.03 | 100 | 1004.3 |
| 20260506104022 | 11 | 235 | 1.6 | 4.8 | 0.00 | 0.08 | 0.03 | 100 | 1004.3 |
| 20260506103520 | 11 | 200 | 1.6 | 6.4 | 0.00 | 0.08 | 0.03 | 100 | 1004.3 |
| 20260506103022 | 10 | 212 | 0.0 | 6.4 | 0.00 | 0.08 | 0.03 | 100 | 1004.3 |
| 20260506102757 | 9 | 142 | 0.0 | 4.8 | 0.00 | 0.08 | 0.03 | 100 | 1004.3 |
| 20260506102521 | 10 | 255 | 0.0 | 4.8 | 0.00 | 0.08 | 0.03 | 100 | 1004.1 |
| 20260506101521 | 9 | 148 | 0.0 | 0.0 | 0.00 | 0.08 | 0.03 | 100 | 1004.1 |
| 20260506101019 | 8 | 134 | 0.0 | 0.0 | 0.00 | 0.08 | 0.03 | 100 | 1004.1 |
| 20260506100519 | 8 | 130 | 0.0 | 0.0 | 0.00 | 0.08 | 0.03 | 100 | 1004.1 |
| 20260506100019 | 8 | 100 | 0.0 | 0.0 | 0.00 | 0.08 | 0.03 | 100 | 1004.2 |
| 20260506095519 | 8 | 209 | 0.0 | 0.0 | 0.00 | 0.08 | 0.03 | 100 | 1004.1 |
| 20260506095018 | 9 | 209 | 0.0 | 0.0 | 0.00 | 0.08 | 0.03 | 100 | 1004.2 |
| 20260506094520 | 9 | 209 | 0.0 | 0.0 | 0.00 | 0.08 | 0.03 | 100 | 1004.2 |
| 20260506094019 | 9 | 209 | 0.0 | 0.0 | 0.00 | 0.08 | 0.03 | 100 | 1004.3 |
| 20260506093519 | 9 | 209 | 0.0 | 0.0 | 0.00 | 0.08 | 0.03 | 100 | 1004.2 |
| 20260506093247 | 9 | 209 | 0.0 | 0.0 | 0.00 | 0.08 | 0.03 | 100 | 1004.2 |
| 20260506092517 | 9 | 210 | 0.0 | 0.0 | 0.00 | 0.08 | 0.03 | 100 | 1004.3 |
| 20260506092017 | 9 | 210 | 0.0 | 0.0 | 0.00 | 0.08 | 0.03 | 100 | 1004.4 |
| 20260506091517 | 9 | 197 | 0.0 | 0.0 | 0.00 | 0.08 | 0.03 | 100 | 1004.4 |
| 20260506091016 | 10 | 197 | 0.0 | 0.0 | 0.00 | 0.08 | 0.03 | 100 | 1004.1 |
| 20260506090517 | 10 | 198 | 0.0 | 0.0 | 0.00 | 0.08 | 0.03 | 100 | 1004.3 |
| 20260506090017 | 10 | 199 | 0.0 | 0.0 | 0.00 | 0.08 | 0.03 | 100 | 1004.4 |
| 20260506085522 | 10 | 199 | 0.0 | 0.0 | 0.00 | 0.08 | 0.03 | 100 | 1004.2 |
| 20260506085517 | 10 | 199 | 0.0 | 0.0 | 0.00 | 0.08 | 0.03 | 100 | 1004.4 |
| 20260506084747 | 10 | 199 | 0.0 | 0.0 | 0.00 | 0.08 | 0.03 | 100 | 1004.1 |
| 20260506084017 | 10 | 199 | 0.0 | 0.0 | 0.00 | 0.08 | 0.03 | 100 | 1004.4 |
| 20260506083516 | 10 | 199 | 0.0 | 0.0 | 0.00 | 0.08 | 0.03 | 100 | 1004.4 |
| 20260506083017 | 10 | 199 | 0.0 | 0.0 | 0.00 | 0.08 | 0.03 | 100 | 1004.6 |
| 20260506082516 | 10 | 209 | 0.0 | 0.0 | 0.00 | 0.08 | 0.03 | 100 | 1004.5 |
| 20260506082017 | 10 | 209 | 0.0 | 0.0 | 0.00 | 0.08 | 0.03 | 100 | 1004.5 |
| 20260506081517 | 10 | 162 | 0.0 | 0.0 | 0.00 | 0.08 | 0.03 | 100 | 1004.5 |
| 20260506081015 | 10 | 162 | 0.0 | 0.0 | 0.00 | 0.08 | 0.03 | 100 | 1004.6 |
| 20260506080516 | 10 | 208 | 0.0 | 0.0 | 0.00 | 0.08 | 0.03 | 100 | 1004.6 |